Location: Jaite
(41.2884°N, 81.5737°W)
Time: 13:49:46
(UTC+00:00)

Cosmos 1428 Rocket - Pass Details

Date: 15 November 2025
Orbit: 947 x 986 km, 82.9° (Epoch: 06 December)

Event Time Altitude Azimuth Distance (km) Brightness Sun altitude
Rises 00:23:12 0° 352° (N) 3,678 7.6 -25.5°
Reaches altitude 10° 00:25:42 10° 352° (N) 2,732 6.9 -26.0°
Maximum altitude 00:31:59 89° 268° (W) 987 4.4 -27.2°
Drops below altitude 10° 00:38:17 10° 175° (S) 2,732 6.8 -28.3°
Sets 00:40:47 0° 175° (S) 3,678 7.5 -28.8°
